Baeir Airport


Codes: BIBI/
Name: Baeir Airport
City: Baeir
Country: Iceland
Elevation: 60 ft.

Photos at Baeir Airport


   Photos courtesy of SpottingLog. You can add your own sightings and photos by signing up for a free trial today.



No photos found.

Weather at Baeir Airport


Time (UTC)DescriptionTempratureWindCloud coverageVisibilityPressureHumidity
26-Jun-2024 00:00Overcast Clouds8°C11 mph, SE100%10000m1004hPa84%
26-Jun-2024 03:00Light Rain8°C9 mph, SE100%10000m1005hPa86%
26-Jun-2024 06:00Light Rain8°C9 mph, SE100%10000m1005hPa85%
26-Jun-2024 09:00Light Rain9°C7 mph, SE98%10000m1006hPa78%
26-Jun-2024 12:00Overcast Clouds10°C2 mph, SE91%10000m1007hPa70%
26-Jun-2024 15:00Light Rain10°C7 mph, N88%10000m1007hPa69%
26-Jun-2024 18:00Light Rain9°C11 mph, N78%10000m1008hPa83%
26-Jun-2024 21:00Light Rain9°C4 mph, NW47%10000m1009hPa83%
27-Jun-2024 00:00Scattered Clouds8°C2 mph, N46%10000m1010hPa83%
27-Jun-2024 03:00Scattered Clouds8°C4 mph, N40%10000m1010hPa85%
27-Jun-2024 06:00Scattered Clouds8°C4 mph, NW41%10000m1010hPa84%
27-Jun-2024 09:00Broken Clouds8°C4 mph, NW84%10000m1010hPa82%
27-Jun-2024 12:00Broken Clouds9°C7 mph, NW83%10000m1010hPa79%
27-Jun-2024 15:00Broken Clouds9°C9 mph, NW51%10000m1010hPa80%
27-Jun-2024 18:00Broken Clouds9°C9 mph, N53%10000m1010hPa77%
27-Jun-2024 21:00Scattered Clouds8°C9 mph, N29%10000m1010hPa74%
28-Jun-2024 00:00Scattered Clouds7°C9 mph, N50%10000m1010hPa77%
28-Jun-2024 03:00Overcast Clouds6°C11 mph, NW100%10000m1009hPa87%
28-Jun-2024 06:00Overcast Clouds5°C16 mph, NW100%4401m1009hPa93%
28-Jun-2024 09:00Overcast Clouds5°C16 mph, NW100%2189m1009hPa97%
28-Jun-2024 12:00Light Rain6°C16 mph, NW100%1934m1008hPa93%
28-Jun-2024 15:00Light Rain7°C18 mph, NW100%8296m1008hPa80%
28-Jun-2024 18:00Light Rain6°C18 mph, NW100%904m1008hPa90%
28-Jun-2024 21:00Moderate Rain7°C13 mph, N100%1031m1009hPa91%
29-Jun-2024 00:00Light Rain7°C11 mph, NW100%476m1010hPa93%
29-Jun-2024 03:00Light Rain7°C9 mph, NW100%262m1011hPa94%
29-Jun-2024 06:00Light Rain7°C7 mph, N100%0m1012hPa94%
29-Jun-2024 09:00Overcast Clouds8°C7 mph, NW95%10000m1012hPa85%
29-Jun-2024 12:00Broken Clouds9°C2 mph, N58%10000m1012hPa74%
29-Jun-2024 15:00Clear Sky9°C2 mph, NE8%10000m1012hPa76%
29-Jun-2024 18:00Scattered Clouds10°C4 mph, NE30%10000m1010hPa75%
29-Jun-2024 21:00Few Clouds10°C7 mph, NE13%10000m1009hPa73%
30-Jun-2024 00:00Broken Clouds9°C7 mph, E57%10000m1008hPa69%
30-Jun-2024 03:00Overcast Clouds8°C7 mph, E94%10000m1006hPa67%
30-Jun-2024 06:00Overcast Clouds9°C7 mph, SE85%10000m1004hPa67%
30-Jun-2024 09:00Few Clouds11°C4 mph, SE22%10000m1003hPa64%
30-Jun-2024 12:00Scattered Clouds13°C4 mph, S41%10000m1002hPa64%
30-Jun-2024 15:00Overcast Clouds14°C13 mph, S100%10000m1002hPa67%
30-Jun-2024 18:00Light Rain11°C11 mph, S100%10000m1002hPa88%
30-Jun-2024 21:00Light Rain10°C9 mph, SE100%9923m1001hPa89%